STARLINK-5708 (55470 NORAD) Tracking and Keplerian Element Data

This shows tracking and keplerian element data for the satellite.

Feedback or suggestion? Click here.




ElementValue
Catalog55470
NameSTARLINK-5708
Epoch Orbit831
Epoch Day85.25001157
Epoch Year2023
RAAN76.7239
Inclination43.0009
Eccentricity0.0001415
Argument of Perigee274.7421
Mean Anonmoly151.6789
Mean Motion15.49002812
Decay Rate-0.00162566
L11 55470U 23015X 23085.25001157 -.00162566 00000+0 -29855-2 0 9999
L22 55470 43.0009 76.7239 0001415 274.7421 151.6789 15.49002812 8312



Live tracking and technical data element details for STARLINK-5708 (NORAD 55470). STARLINK-5708 can be tracked NOW for your location showing map with azimuth and elevation plus other details from your city location.







IsCatalogInMostPopularTable: catalog: 55470, numindb: -1

Insert: records affected: 1


GetName: 55470 STARLINK-5708

Hit Count: inserted at: Tue, 28 Mar 2023 02:20:06 GMT